This demonstration page uses our WeatherBlox Daily Observations layout. Learn more.

Left ArrowRight Arrow

Hourly Observations for October 19, 2016

Temp ( °F °C ) Dew Point ( °F °C ) Humidity (%) Winds ( mph kmh ) Pressure ( in mb ) Visibility ( mi km ) Precip ( " mm )
12:51 am 00:51 Clear 57 13.9 39 3.9 51 51 Calm 29.86 1011 10 16 0.00 0.00
1:51 am 01:51 Clear 53 11.7 40 4.4 61 61 Calm 29.88 1012 10 16 0.00 0.03
2:51 am 02:51 Clear 55 12.8 39 3.9 55 55 SSW 3 6 29.87 1012 10 16 0.00 0.00
3:51 am 03:51 Clear 52 11.1 37 2.8 57 57 ESE 7 11 29.89 1012 10 16 0.00 0.00
4:51 am 04:51 Clear 53 11.7 37 2.8 55 55 E 5 7 29.90 1013 10 16 0.00 0.00
5:51 am 05:51 Clear 51 10.6 38 3.3 61 61 Calm 29.94 1014 10 16 0.00 0.00
6:51 am 06:51 Sunny 51 10.6 39 3.9 64 64 ESE 5 7 29.95 1014 10 16 0.00 0.00
7:51 am 07:51 Sunny 59 15 37 2.8 44 44 SSE 3 6 29.97 1015 10 16 0.00 0.00
8:51 am 08:51 Sunny 64 17.8 38 3.3 38 38 Calm 29.99 1016 10 16 0.00 0.00
9:51 am 09:51 Sunny 71 21.7 39 3.9 31 31 Calm 29.98 1015 10 16 0.00 0.00
10:51 am 10:51 Sunny 74 23.3 40 4.4 29 29 WSW 6 9 29.97 1015 10 16 0.00 0.00
11:51 am 11:51 Sunny 78 25.6 42 5.6 28 28 SW 5 7 29.94 1014 10 16 0.00 0.00
12:51 pm 12:51 Sunny 83 28.3 42 5.6 24 24 W 7 11 29.90 1013 10 16 0.00 0.00
1:51 pm 13:51 Sunny 84 28.9 41 5 22 22 W 9 15 29.88 1012 10 16 0.00 0.00
2:51 pm 14:51 Sunny 86 30 38 3.3 18 18 W 10 17 29.86 1011 10 16 0.00 0.00
3:51 pm 15:51 Sunny 86 30 34 1.1 15 15 W 12 19 29.86 1011 10 16 0.00 0.00
4:51 pm 16:51 Sunny 84 28.9 30 -1.1 14 14 WNW 12 19 29.86 1011 10 16 0.00 0.00
5:51 pm 17:51 Clear 75 23.9 33 0.6 22 22 WNW 8 13 29.88 1012 10 16 0.00 0.00
6:51 pm 18:51 Clear 70 21.1 33 0.6 26 26 NNW 9 15 29.91 1013 10 16 0.00 0.00
7:51 pm 19:51 Clear 67 19.4 34 1.1 30 30 NNW 8 13 29.91 1013 10 16 0.00 0.03
8:51 pm 20:51 Clear 69 20.6 30 -1.1 23 23 NW 6 9 29.91 1013 10 16 0.00 0.00
9:51 pm 21:51 Clear 60 15.6 33 0.6 36 36 NE 5 7 29.94 1014 10 16 0.00 0.00
10:51 pm 22:51 Clear 58 14.4 33 0.6 39 39 N 3 6 29.96 1015 10 16 0.00 0.00
11:51 pm 23:51 Clear 56 13.3 34 1.1 44 44 E 3 6 29.96 1015 10 16 0.00 0.00

Powered by AerisWeather